This demonstration page uses our WeatherBlox Daily Observations layout. Learn more.

Left ArrowRight Arrow

31.84235, -102.49876

Hourly Observations for March 12, 2022

Temp ( °F °C ) Dew Point ( °F °C ) Humidity (%) Winds ( mph kmh ) Pressure ( in mb ) Visibility ( mi km ) Precip ( " mm )
12:53 am 00:53 Clear 27 -2.8 6 -14.4 41 41 Calm 30.41 1030 10 16 0.00 0.00
1:53 am 01:53 Clear 27 -2.8 5 -15 39 39 Calm 30.41 1030 10 16 0.00 0.00
2:53 am 02:53 Clear 25 -3.9 7 -13.9 46 46 Calm 30.41 1030 10 16 0.00 0.00
3:53 am 03:53 Clear 26 -3.3 7 -13.9 44 44 S 3 6 30.39 1029 10 16 0.00 0.00
4:53 am 04:53 Clear 22 -5.6 6 -14.4 50 50 Calm 30.41 1030 10 16 0.00 0.00
5:53 am 05:53 Clear 23 -5 7 -13.9 50 50 SSW 5 7 30.42 1030 10 16 0.00 0.00
6:53 am 06:53 Clear 26 -3.3 10 -12.2 51 51 SSW 3 6 30.43 1031 10 16 0.00 0.00
7:53 am 07:53 Sunny 28 -2.2 15 -9.4 58 58 SSW 9 15 30.44 1031 10 16 0.00 0.00
8:53 am 08:53 Sunny 35 1.7 17 -8.3 48 48 SSW 9 15 30.45 1031 10 16 0.00 0.00
9:53 am 09:53 Sunny 40 4.4 19 -7.2 43 43 SSW 15 24 30.44 1031 10 16 0.00 0.00
10:53 am 10:53 Sunny 42 5.6 18 -7.8 38 38 SW 16 26 30.44 1031 10 16 0.00 0.00
11:53 am 11:53 Sunny 46 7.8 17 -8.3 31 31 SSW 16 26 30.42 1030 10 16 0.00 0.00
12:53 pm 12:53 Sunny 50 10 12 -11.1 22 22 SSW 18 30 30.37 1028 10 16 0.00 0.00
1:53 pm 13:53 Sunny 53 11.7 10 -12.2 18 18 SW 18 30 30.31 1026 10 16 0.00 0.00
2:53 pm 14:53 Sunny 57 13.9 8 -13.3 14 14 SSW 17 28 30.25 1025 10 16 0.00 0.00
3:53 pm 15:53 Sunny 60 15.6 3 -16.1 10 10 S 16 26 30.21 1023 10 16 0.00 0.00
4:53 pm 16:53 Sunny 60 15.6 4 -15.6 10 10 S 16 26 30.19 1022 10 16 0.00 0.00
5:53 pm 17:53 Sunny 58 14.4 3 -16.1 11 11 S 17 28 30.18 1022 10 16 0.00 0.00
6:53 pm 18:53 Sunny 55 12.8 2 -16.7 11 11 S 16 26 30.17 1022 10 16 0.00 0.00
7:53 pm 19:53 Clear 52 11.1 2 -16.7 13 13 S 16 26 30.18 1022 10 16 0.00 0.00
8:53 pm 20:53 Clear 49 9.4 3 -16.1 15 15 S 13 20 30.18 1022 10 16 0.00 0.00
9:53 pm 21:53 Clear 47 8.3 3 -16.1 16 16 S 14 22 30.18 1022 10 16 0.00 0.00
10:53 pm 22:53 Clear 45 7.2 2 -16.7 16 16 S 13 20 30.18 1022 10 16 0.00 0.00
11:53 pm 23:53 Clear 44 6.7 2 -16.7 17 17 SSW 17 28 30.16 1022 10 16 0.00 0.00

Powered by AerisWeather